sat.trackr.live / text

‹ back to catalog

STARLINK-34937

NORAD 66192 · 2025-243R

PAYLOAD ACTIVE UNKNOWN

§ Identity

Operator
Country
US
Launch date
2025-10-26
Launch site
AFETR
Launch vehicle
Mass (kg)
RCS (m²)

Purposes: comms

External: N2YO · Heavens-Above · Gunter

§ Orbital elements

Epoch: 2026-09-20T21:57:08.634528Z

Period
93.85 min
Inclination
53.1577°
Eccentricity
0.0001083
Mean motion
15.34406773 rev/d
Perigee alt
461.9 km
Apogee alt
463.4 km
Semi-major
6,840.8 km
B*
2.5069e-4
RAAN
55.6142°
Arg perigee
95.2013°
Mean anomaly
264.9114°
Rev number
5,058

§ Raw data

STARLINK-349371 66192U 25243R   26263.91468327  .00008105  00000+0  25069-3 0  99972 66192  53.1577  55.6142 0001083  95.2013 264.9114 15.34406773 50584

JSON: /api/v1/satellites/66192 · /tle

For live sub-satellite position, see the globe view (requires WebGL).

§ Visibility from observer

Set your observer location to see the next 7 days of passes ≥ 10°. The values pass through the URL so the page stays shareable.

No JS? Fill the form by hand. The geolocation button needs JavaScript.